Weather History for VIJP - July, 2013

Change the Weather History Date:

Tuesday, July 16, 2013

  Actual Average Record
Temperature  
Mean Temperature 84 °F -  
Max Temperature 93 °F - - ()
Min Temperature 76 °F - - ()
Cooling Degree Days 20    
Growing Degree Days 34 (Base 50)    
Moisture  
Dew Point 79 °F    
Average Humidity 81    
Maximum Humidity 100    
Minimum Humidity 58    
Precipitation  
Precipitation 0.00 in - - ()
Sea Level Pressure  
Sea Level Pressure 29.55 in    
Wind  
Wind Speed 2 mph ()    
Max Wind Speed 9 mph    
Max Gust Speed -    
Visibility 1.6 miles    
Events      
T = Trace of Precipitation, MM = Missing Value Source: Averaged Metar Reports

Daily Weather History Graph

Daily Weather History Graph

Search for Another Location

Airport or City:

Trip Planner

Search our weather history database for the weather conditions in past years. The results will help you decide how hot, cold, wet, or windy it might be!

Date:

Astronomy

Jul. 16, 2013 Rise Set
Actual Time 5:43 AM IST 7:22 PM IST
Civil Twilight 5:17 AM IST 7:48 PM IST
Nautical Twilight 4:46 AM IST 8:19 PM IST
Astronomical Twilight 4:13 AM IST 8:51 PM IST
Moon 12:48 PM IST (7/16) 12:20 AM IST (7/17)
Length of Visible Light 14h 30m
Length of Day
13h 39m
First Quarter, 51% of the Moon is Illuminated
Jul 16
First Quarter
Jul 22
Full
Jul 29
Last Quarter
Aug 7
New
Aug 14
First Quarter

Hourly Weather History & Observations

Time (IST) Temp. Heat Index Dew Point Humidity Pressure Visibility Wind Dir Wind Speed Gust Speed Precip Events Conditions
12:00 AM 78.8 °F - 77.0 °F 94% 29.59 in 1.6 mi Variable 3.5 mph - N/A   Scattered Clouds
1:00 AM 78.8 °F - 77.0 °F 94% 29.56 in 1.2 mi Calm Calm - N/A   Scattered Clouds
2:00 AM 77.0 °F - 77.0 °F 100% 29.56 in 1.2 mi Calm Calm - N/A   Scattered Clouds
2:30 AM 78 °F - 76 °F 92% 29.48 in 1 mi Calm Calm - -   Mist
3:00 AM 77.0 °F - 77.0 °F 100% 29.56 in 1.2 mi Variable 1.2 mph - N/A   Scattered Clouds
5:00 AM 77.0 °F - 77.0 °F 100% 29.59 in 1.2 mi Calm Calm - N/A   Scattered Clouds
5:30 AM 77 °F - 76 °F 95% 29.51 in 1 mi WNW 8.9 mph - -   Mist
6:00 AM 78.8 °F - 77.0 °F 94% 29.59 in 1.6 mi Variable 2.3 mph - N/A   Scattered Clouds
7:00 AM 78.8 °F - 77.0 °F 94% 29.62 in 1.6 mi Variable 3.5 mph - N/A   Scattered Clouds
8:00 AM 80.6 °F 87.1 °F 77.0 °F 89% 29.62 in 1.6 mi Variable 8.1 mph - N/A   Scattered Clouds
8:30 AM 81 °F - 75 °F 78% 29.55 in 1 mi NNW 8.9 mph - -   Mist
9:00 AM 80.6 °F 87.1 °F 77.0 °F 89% 29.62 in 1.6 mi Variable 4.6 mph - N/A   Mostly Cloudy
10:00 AM 84.2 °F 96.1 °F 78.8 °F 84% 29.65 in 1.9 mi Variable 4.6 mph - N/A   Haze
11:00 AM 87.8 °F 104.9 °F 80.6 °F 79% 29.62 in 1.9 mi Variable 3.5 mph - N/A   Haze
11:30 AM 87 °F - 79 °F 71% 29.54 in 2 mi SW 4.5 mph - -   Haze
12:00 PM 89.6 °F 104.7 °F 78.8 °F 70% 29.62 in 1.9 mi East 2.3 mph - N/A   Haze
1:00 PM 89.6 °F 108.2 °F 80.6 °F 75% 29.59 in 1.9 mi Calm Calm - N/A   Haze
2:00 PM 91.4 °F 107.2 °F 78.8 °F 66% 29.56 in 1.9 mi Calm Calm - N/A   Haze
2:30 PM 91 °F - 79 °F 61% 29.45 in 1 mi Calm Calm - -   Haze
3:00 PM 93.2 °F 113.6 °F 80.6 °F 67% 29.56 in 1.9 mi Calm Calm - N/A   Haze
4:00 PM 93.2 °F 110.2 °F 78.8 °F 63% 29.53 in - North - - N/A   Haze
5:00 PM 93.2 °F 113.6 °F 80.6 °F 67% 29.53 in 1.9 mi Calm Calm - N/A   Haze
5:30 PM 92 °F - 79 °F 58% 29.43 in 2 mi Calm Calm - -   Haze
6:00 PM 89.6 °F 108.2 °F 80.6 °F 75% 29.53 in 2.5 mi Calm Calm - N/A   Haze
7:00 PM 89.6 °F 108.2 °F 80.6 °F 75% 29.53 in 2.5 mi Calm Calm - N/A   Haze
7:30 PM 89.6 °F 108.2 °F 80.6 °F 75% 29.53 in 2.2 mi Variable 1.2 mph - N/A   Haze
8:30 PM 87 °F - 80 °F 74% 29.46 in 1 mi Calm Calm - -   Mist
8:30 PM 87.8 °F 108.2 °F 82.4 °F 84% 29.53 in 1.9 mi Calm Calm - N/A   Mostly Cloudy
9:00 PM 86.0 °F 101.9 °F 80.6 °F 84% 29.56 in 1.6 mi Calm Calm - N/A   Mostly Cloudy
10:00 PM 86.0 °F 101.9 °F 80.6 °F 84% 29.59 in 1.6 mi Calm Calm - N/A   Mostly Cloudy
11:00 PM 86.0 °F 101.9 °F 80.6 °F 84% 29.59 in 1.6 mi Variable 2.3 mph - N/A   Mostly Cloudy
11:30 PM 85 °F - 79 °F 78% 29.50 in 1 mi Calm Calm - -   Mist